| time (UTC) | temp F | wind direction | speed knots | gust knots | rain 1hr in | rain 24hr in | rain mn in | humidity % | barometer mb |
| 20260506121550 | 0 | 0.0 | 0.0 | 0.00 | 0.00 | 0.00 | 1012.2 | ||
| 20260506120023 | 0 | 0.0 | 0.0 | 0.00 | 0.00 | 0.00 | 1012.0 | ||
| 20260506114517 | 0 | 0.0 | 0.0 | 0.00 | 0.00 | 0.00 | 1011.7 | ||
| 20260506073005 | 61 | 303 | 0.0 | 3.5 | 0.00 | 0.00 | 0.00 | 76 | 1009.4 |
| 20260506071504 | 62 | 316 | 0.0 | 4.3 | 0.00 | 0.00 | 0.00 | 76 | 1009.2 |
| 20260506061556 | 63 | 316 | 0.0 | 2.6 | 0.00 | 0.00 | 0.00 | 76 | 1009.0 |
| 20260506024503 | 74 | 275 | 0.0 | 1.7 | 0.00 | 0.00 | 0.00 | 71 | 1006.7 |
| 20260506023105 | 74 | 332 | 0.0 | 1.7 | 0.00 | 0.00 | 0.00 | 70 | 1006.0 |
| 20260506021604 | 75 | 96 | 0.0 | 2.6 | 0.00 | 0.00 | 0.00 | 70 | 1005.6 |
| 20260506020059 | 76 | 315 | 0.0 | 6.1 | 0.00 | 0.00 | 0.00 | 71 | 1005.4 |
| 20260506014557 | 78 | 245 | 0.0 | 0.0 | 0.00 | 0.00 | 0.00 | 71 | 1005.1 |
| 20260506003031 | 81 | 129 | 0.0 | 0.0 | 0.00 | 0.00 | 0.00 | 74 | 1004.6 |
| 20260506001531 | 82 | 147 | 0.9 | 5.2 | 0.00 | 0.00 | 0.00 | 71 | 1004.4 |
| 20260506000029 | 83 | 202 | 0.9 | 7.8 | 0.00 | 0.00 | 0.00 | 70 | 1003.8 |
| 20260505234529 | 83 | 212 | 3.5 | 8.7 | 0.00 | 0.00 | 0.00 | 69 | 1003.5 |
| 20260505214544 | 90 | 89 | 0.0 | 6.1 | 0.00 | 0.00 | 0.00 | 58 | 1003.3 |
| 20260505213042 | 90 | 163 | 0.0 | 8.7 | 0.00 | 0.00 | 0.00 | 58 | 1003.4 |
| 20260505211541 | 90 | 165 | 2.6 | 9.6 | 0.00 | 0.00 | 0.00 | 57 | 1003.6 |
| 20260505210044 | 90 | 120 | 1.7 | 7.8 | 0.00 | 0.00 | 0.00 | 56 | 1003.6 |
| 20260505204536 | 90 | 99 | 1.7 | 7.0 | 0.00 | 0.00 | 0.00 | 56 | 1004.0 |
| 20260505203037 | 90 | 219 | 0.0 | 9.6 | 0.00 | 0.00 | 0.00 | 56 | 1004.0 |
| 20260505201547 | 89 | 134 | 2.6 | 6.1 | 0.00 | 0.00 | 0.00 | 57 | 1004.1 |
| 20260505200033 | 89 | 98 | 0.9 | 7.0 | 0.00 | 0.00 | 0.00 | 58 | 1004.2 |
| 20260505194527 | 88 | 229 | 0.0 | 7.0 | 0.00 | 0.00 | 0.00 | 60 | 1004.3 |
| 20260505183114 | 85 | 131 | 0.9 | 6.1 | 0.00 | 0.00 | 0.00 | 62 | 1004.8 |
| 20260505181553 | 85 | 175 | 0.9 | 7.8 | 0.00 | 0.00 | 0.00 | 63 | 1004.8 |
| 20260505180050 | 84 | 127 | 0.0 | 7.0 | 0.00 | 0.00 | 0.00 | 65 | 1004.9 |
| 20260505174549 | 84 | 113 | 1.7 | 6.1 | 0.00 | 0.00 | 0.00 | 63 | 1005.0 |
| 20260505173052 | 84 | 182 | 0.9 | 7.0 | 0.00 | 0.00 | 0.00 | 65 | 1004.8 |
| 20260505171555 | 83 | 236 | 1.7 | 9.6 | 0.00 | 0.00 | 0.00 | 64 | 1004.9 |
| 20260505170044 | 83 | 97 | 0.0 | 7.0 | 0.00 | 0.00 | 0.00 | 67 | 1005.1 |
| 20260505164539 | 81 | 58 | 0.0 | 9.6 | 0.00 | 0.00 | 0.00 | 68 | 1005.1 |
| 20260505163037 | 82 | 41 | 0.0 | 8.7 | 0.00 | 0.00 | 0.00 | 67 | 1004.8 |
| 20260505161536 | 81 | 205 | 0.0 | 11.3 | 0.00 | 0.00 | 0.00 | 70 | 1004.7 |
| 20260505153028 | 79 | 100 | 0.9 | 7.8 | 0.00 | 0.00 | 0.00 | 74 | 1004.7 |
| 20260505151532 | 77 | 232 | 2.6 | 9.6 | 0.00 | 0.00 | 0.00 | 76 | 1004.8 |
| 20260505123007 | 0 | 0.0 | 0.0 | 0.00 | 0.00 | 0.00 | 1004.2 |